Home   Weather   Panama   Past weeks

Flag for Panama Past Weather in Panama, Panama — Yesterday and Last 2 Weeks

Now
75 °F

Passing clouds.


Feels Like: 74 °F
Forecast: 74 / 86 °F
Wind: No wind

Location: Panama Airport

Current Time: Dec 4, 2016 at 1:02:11 am

Latest Report: Dec 4, 2016 at 12:00 am


Visibility: N/A

Pressure: 29.92 "Hg

Humidity: 94%

Dew Point: 73 °F

Location of PanamaLocation

Past Weather in Panama — Graph

°F

Panama Temperature Yesterday

Maximum temperature yesterday: 88 °F (at 12:00 pm)
Minimum temperature yesterday: 70 °F (at 4:00 am)
Average temperature yesterday: 79 °F

High & Low Weather Summary for the Past Weeks

 TemperatureHumidityPressure
High88 °F (Dec 2, 11:00 am)100% (Nov 19, 12:00 am)29.92 "Hg (Nov 19, 12:00 am)
Low70 °F (Dec 3, 4:00 am)66% (Dec 2, 10:00 am)29.71 "Hg (Nov 22, 5:00 am)
Average78 °F93%29.84 "Hg
* Reported Nov 19 12:00 am — Dec 4 12:00 am, Panama, Weather by CustomWeather, © 2016

Note: Actual official high and low records may vary slightly from our data, if they occured in-between our weather recording intervals... More about our weather records

Advertising

Panama Weather History for the Previous 24 Hours

Scroll right to see more
 ConditionsComfort  
Time TempWeatherWind HumidityBarometerVisibility
12:00 am
Sun, Dec 4
75 °FPassing clouds.No wind94%29.92 "HgN/A
10:00 pm
Sat, Dec 3
77 °FPassing clouds.3 mph94%29.89 "HgN/A
9:00 pm77 °FPassing clouds.3 mph94%29.86 "HgN/A
8:00 pm79 °FPassing clouds.5 mph94%29.83 "HgN/A
7:00 pm81 °FPassing clouds.7 mph94%29.80 "HgN/A
6:00 pm81 °FPassing clouds.6 mph89%29.80 "HgN/A
5:00 pm82 °FScattered clouds.10 mph89%29.80 "HgN/A
4:00 pm86 °FScattered clouds.14 mph79%29.80 "HgN/A
3:00 pm86 °FScattered clouds.14 mph79%29.83 "HgN/A
2:00 pm88 °FScattered clouds.10 mph70%29.86 "HgN/A
1:00 pm88 °FScattered clouds.8 mph70%29.92 "HgN/A
12:00 pm88 °FScattered clouds.7 mph66%29.92 "HgN/A
11:00 am86 °FScattered clouds.6 mph66%29.92 "HgN/A
10:00 am84 °FScattered clouds.No wind74%29.92 "HgN/A
9:00 am81 °FPassing clouds.3 mph79%29.89 "HgN/A
8:00 am77 °FPassing clouds.3 mph89%29.86 "HgN/A
7:00 am70 °FPassing clouds.No wind100%29.86 "HgN/A
5:00 am70 °FPassing clouds.No wind100%29.86 "HgN/A
4:00 am70 °FPassing clouds.No wind100%29.83 "HgN/A
3:00 am72 °FPassing clouds.No wind100%29.86 "HgN/A
2:00 am73 °FPassing clouds.7 mph94%29.86 "HgN/A
1:00 am73 °FPassing clouds.No wind94%29.89 "HgN/A
Weather by CustomWeather, © 2016

See weather overviewHow to use our weather pages